Location: *
(38.9800°N, 16.0500°E)
Time: 22:24:37
(UTC+00:00)

STARLINK-1062 - Pass Details

Date: 07 April 2020
Orbit: 549 x 551 km, 53.0° (Epoch: 25 May)

Event Time Altitude Azimuth Distance (km) Brightness Sun altitude
Exits shadow 02:15:00 49° 107° (ESE) 714 4.3 -25.3°
Drops below altitude 10° 02:18:33 10° 58° (ENE) 1,827 7.3 -24.7°
Sets 02:20:49 0° 54° (NE) 2,724 8.6 -24.3°
